Weather History for St. James, MN

Change the Weather History Date:

Saturday, May 18, 2013

  Actual Average Record
Temperature  
Mean Temperature 73 °F -  
Max Temperature 84 °F 74 °F 93 °F (1998)
Min Temperature 62 °F 50 °F 32 °F (1968)
Cooling Degree Days 8    
Growing Degree Days 23 (Base 50)    
Moisture  
Dew Point 61 °F    
Average Humidity 67    
Maximum Humidity 94    
Minimum Humidity 40    
Precipitation  
Precipitation 0.00 in - - ()
Sea Level Pressure  
Sea Level Pressure 29.86 in    
Wind  
Wind Speed 10 mph (SSE)    
Max Wind Speed 22 mph    
Max Gust Speed 28 mph    
Visibility 10 miles    
Events Thunderstorm    
Averages and records for this station are not official NWS values.
T = Trace of Precipitation, MM = Missing Value Source: NWS Daily Summary

Daily Weather History Graph

Daily Weather History Graph

Search for Another Location

Airport:

Trip Planner

Search our weather history database for the weather conditions in past years. The results will help you decide how hot, cold, wet, or windy it might be!

Date:

Astronomy

May. 18, 2013 Rise Set
Actual Time 5:48 AM CDT 8:41 PM CDT
Civil Twilight 5:15 AM CDT 9:15 PM CDT
Nautical Twilight 4:32 AM CDT 9:58 PM CDT
Astronomical Twilight 3:42 AM CDT 10:48 PM CDT
Moon 1:31 PM CDT (5/18) 1:56 AM CDT (5/18)
Length of Visible Light 16h 00m
Length of Day
14h 52m
First Quarter, 55% of the Moon is Illuminated
May 18
First Quarter
May 24
Full
May 31
Last Quarter
Jun 8
New
Jun 16
First Quarter

Hourly Weather History & Observations

Time (CDT) Temp. Heat Index Dew Point Humidity Pressure Visibility Wind Dir Wind Speed Gust Speed Precip Events Conditions
12:14 AM 62.6 °F - 60.8 °F 94% 29.91 in 7.0 mi ESE 11.5 mph - N/A   Clear
12:35 AM 62.6 °F - 60.8 °F 94% 29.91 in 7.0 mi ESE 9.2 mph - N/A   Scattered Clouds
12:55 AM 64.4 °F - 60.8 °F 88% 29.91 in 7.0 mi ESE 9.2 mph - N/A   Mostly Cloudy
1:14 AM 64.4 °F - 60.8 °F 88% 29.90 in 7.0 mi ESE 10.4 mph - N/A   Scattered Clouds
1:35 AM 64.4 °F - 60.8 °F 88% 29.91 in 7.0 mi ESE 11.5 mph - N/A   Scattered Clouds
1:55 AM 64.4 °F - 60.8 °F 88% 29.91 in 7.0 mi SE 9.2 mph - N/A   Scattered Clouds
2:14 AM 64.4 °F - 60.8 °F 88% 29.91 in 7.0 mi SE 6.9 mph - N/A   Scattered Clouds
2:35 AM 64.4 °F - 60.8 °F 88% 29.90 in 10.0 mi SE 10.4 mph - N/A Thunderstorm Scattered Clouds
2:55 AM 64.4 °F - 60.8 °F 88% 29.89 in 10.0 mi SSE 9.2 mph - N/A   Clear
3:14 AM 64.4 °F - 60.8 °F 88% 29.90 in 10.0 mi SSE 10.4 mph - N/A   Scattered Clouds
3:35 AM 66.2 °F - 60.8 °F 83% 29.89 in 10.0 mi SSE 10.4 mph - N/A   Clear
3:55 AM 66.2 °F - 60.8 °F 83% 29.89 in 10.0 mi SSE 10.4 mph - N/A   Scattered Clouds
4:15 AM 66.2 °F - 60.8 °F 83% 29.89 in 10.0 mi SSE 12.7 mph 17.3 mph N/A   Mostly Cloudy
4:35 AM 66.2 °F - 60.8 °F 83% 29.89 in 10.0 mi SSE 11.5 mph - N/A   Scattered Clouds
4:54 AM 66.2 °F - 60.8 °F 83% 29.89 in 10.0 mi SSE 12.7 mph - N/A   Scattered Clouds
5:15 AM 66.2 °F - 60.8 °F 83% 29.89 in 10.0 mi SSE 12.7 mph - N/A Thunderstorm Scattered Clouds
5:34 AM 66.2 °F - 60.8 °F 83% 29.89 in 10.0 mi SSE 9.2 mph - N/A   Clear
5:55 AM 66.2 °F - 60.8 °F 83% 29.89 in 10.0 mi SSE 11.5 mph - N/A   Mostly Cloudy
6:15 AM 66.2 °F - 60.8 °F 83% 29.90 in 10.0 mi SSE 9.2 mph - N/A   Mostly Cloudy
6:35 AM 66.2 °F - 60.8 °F 83% 29.91 in 10.0 mi SSE 8.1 mph - N/A   Mostly Cloudy
6:55 AM 66.2 °F - 60.8 °F 83% 29.92 in 10.0 mi SSE 10.4 mph - N/A   Scattered Clouds
7:14 AM 66.2 °F - 60.8 °F 83% 29.91 in 10.0 mi SSE 13.8 mph - N/A   Scattered Clouds
7:35 AM 66.2 °F - 60.8 °F 83% 29.91 in 10.0 mi South 13.8 mph - N/A   Clear
7:55 AM 68.0 °F - 60.8 °F 78% 29.91 in 10.0 mi SSE 15.0 mph - N/A Thunderstorm Clear
8:14 AM 68.0 °F - 60.8 °F 78% 29.91 in 10.0 mi SSE 15.0 mph - N/A   Clear
8:35 AM 69.8 °F - 60.8 °F 73% 29.91 in 10.0 mi South 15.0 mph - N/A   Clear
8:55 AM 69.8 °F - 62.6 °F 78% 29.90 in 10.0 mi SSE 16.1 mph - N/A Thunderstorm Thunderstorm
9:11 AM 71.6 °F - 62.6 °F 73% 29.91 in 10.0 mi SSE 13.8 mph - N/A   Clear
9:35 AM 73.4 °F - 62.6 °F 69% 29.91 in 10.0 mi South 15.0 mph - N/A   Clear
9:55 AM 73.4 °F - 62.6 °F 69% 29.92 in 10.0 mi South 5.8 mph - N/A   Clear
10:15 AM 73.4 °F - 62.6 °F 69% 29.93 in 10.0 mi Calm Calm - N/A   Scattered Clouds
10:35 AM 75.2 °F - 62.6 °F 65% 29.92 in 10.0 mi Calm Calm - N/A   Scattered Clouds
10:55 AM 75.2 °F - 62.6 °F 65% 29.92 in 10.0 mi Calm Calm - N/A   Scattered Clouds
11:14 AM 75.2 °F - 64.4 °F 69% 29.92 in 10.0 mi SSE 6.9 mph - N/A   Scattered Clouds
11:35 AM 75.2 °F - 64.4 °F 69% 29.91 in 10.0 mi South 8.1 mph - N/A   Scattered Clouds
11:55 AM 77.0 °F - 64.4 °F 65% 29.90 in 10.0 mi SSE 8.1 mph - N/A   Scattered Clouds
12:14 PM 78.8 °F - 64.4 °F 61% 29.89 in 10.0 mi South 12.7 mph 17.3 mph N/A   Scattered Clouds
12:35 PM 78.8 °F - 64.4 °F 61% 29.88 in 10.0 mi SSE 15.0 mph - N/A   Scattered Clouds
12:55 PM 80.6 °F 81.8 °F 62.6 °F 54% 29.88 in 10.0 mi SSE 12.7 mph 17.3 mph N/A   Scattered Clouds
1:15 PM 80.6 °F 81.8 °F 62.6 °F 54% 29.87 in 10.0 mi SE 12.7 mph 18.4 mph N/A   Scattered Clouds
1:35 PM 80.6 °F 81.8 °F 62.6 °F 54% 29.87 in 10.0 mi SSE 11.5 mph 18.4 mph N/A   Scattered Clouds
2:15 PM 80.6 °F 81.8 °F 62.6 °F 54% 29.86 in 10.0 mi SE 15.0 mph 23.0 mph N/A   Scattered Clouds
2:35 PM 82.4 °F 82.9 °F 60.8 °F 48% 29.85 in 10.0 mi SE 15.0 mph 20.7 mph N/A   Scattered Clouds
2:55 PM 80.6 °F 81.5 °F 60.8 °F 51% 29.85 in 10.0 mi SE 12.7 mph - N/A   Mostly Cloudy
3:14 PM 82.4 °F 82.9 °F 60.8 °F 48% 29.84 in 10.0 mi SSE 16.1 mph 19.6 mph N/A   Scattered Clouds
3:35 PM 82.4 °F 82.5 °F 59.0 °F 45% 29.83 in 10.0 mi SSE 17.3 mph 21.9 mph N/A   Scattered Clouds
3:55 PM 82.4 °F 82.0 °F 57.2 °F 42% 29.83 in 10.0 mi SSE 18.4 mph 24.2 mph N/A   Scattered Clouds
4:15 PM 82.4 °F 82.0 °F 57.2 °F 42% 29.83 in 10.0 mi South 17.3 mph 23.0 mph N/A   Clear
4:35 PM 82.4 °F 82.0 °F 57.2 °F 42% 29.83 in 10.0 mi SSE 19.6 mph 25.3 mph N/A   Scattered Clouds
5:15 PM 84.2 °F 83.8 °F 59.0 °F 42% 29.80 in 10.0 mi South 21.9 mph 27.6 mph N/A   Scattered Clouds
5:35 PM 82.4 °F 82.0 °F 57.2 °F 42% 29.81 in 10.0 mi SSE 20.7 mph 25.3 mph N/A   Clear
5:55 PM 82.4 °F 82.0 °F 57.2 °F 42% 29.81 in 10.0 mi SSE 18.4 mph 21.9 mph N/A   Clear
6:15 PM 82.4 °F 82.0 °F 57.2 °F 42% 29.81 in 10.0 mi SSE 17.3 mph 23.0 mph N/A   Clear
6:35 PM 84.2 °F 83.5 °F 57.2 °F 40% 29.80 in 10.0 mi SSE 20.7 mph - N/A   Clear
6:55 PM 82.4 °F 82.0 °F 57.2 °F 42% 29.81 in 10.0 mi South 16.1 mph 20.7 mph N/A   Clear
7:15 PM 82.4 °F 82.0 °F 57.2 °F 42% 29.80 in 10.0 mi SSE 15.0 mph - N/A   Clear
7:35 PM 82.4 °F 82.0 °F 57.2 °F 42% 29.80 in 10.0 mi SSE 10.4 mph - N/A   Clear
7:55 PM 80.6 °F 81.1 °F 59.0 °F 48% 29.79 in 10.0 mi SE 9.2 mph - N/A   Clear
8:15 PM 80.6 °F 81.1 °F 59.0 °F 48% 29.79 in 10.0 mi SE 6.9 mph - N/A   Clear
8:35 PM 78.8 °F - 60.8 °F 54% 29.78 in 10.0 mi Calm Calm - N/A   Clear
8:55 PM 75.2 °F - 60.8 °F 61% 29.77 in 10.0 mi Calm Calm - N/A   Clear
9:15 PM 75.2 °F - 60.8 °F 61% 29.78 in 10.0 mi Calm Calm - N/A   Clear
9:35 PM 75.2 °F - 60.8 °F 61% 29.78 in 10.0 mi Calm Calm - N/A   Clear
9:55 PM 75.2 °F - 60.8 °F 61% 29.79 in 10.0 mi Calm Calm - N/A   Clear
10:15 PM 73.4 °F - 60.8 °F 65% 29.79 in 10.0 mi Calm Calm - N/A   Clear
10:35 PM 73.4 °F - 60.8 °F 65% 29.78 in 10.0 mi Calm Calm - N/A   Clear
10:55 PM 73.4 °F - 60.8 °F 65% 29.78 in 10.0 mi Calm Calm - N/A   Clear
11:15 PM 73.4 °F - 60.8 °F 65% 29.78 in 10.0 mi Calm Calm - N/A   Clear
11:35 PM 71.6 °F - 60.8 °F 69% 29.77 in 10.0 mi Calm Calm - N/A   Clear
11:55 PM 71.6 °F - 60.8 °F 69% 29.77 in 10.0 mi Calm Calm - N/A   Clear